Wind_Speed
20 19 20 21 19 16 14 12 10 12 16 18 20 20 20 19 19 19 19 20 20 20 20 19 19 19 19 19 19 20 19 18 18 18 18 18 18 18 18 18 18 18 18 18 18 18 17 17 17 16 17 19 19 20 20 20 20 20 19 18 18 17 17 17 16 16 16 17 16 16 16 15 15 16 17 16 16 17 18 19 18 16 16 16 16
22 20 21 22 20 16 15 13 10 12 15 18 19 20 20 18 18 17 17 17 18 18 19 19 19 19 19 19 19 18 18 17 17 18 18 17 17 17 17 17 17 18 18 17 17 17 17 17 17 17 18 19 19 20 20 20 20 20 20 19 18 17 17 16 15 15 16 16 16 16 15 15 14 15 16 15 15 16 17 17 16 15 15 14 15
23 20 20 23 21 17 15 13 10 11 14 18 20 20 20 18 17 17 17 17 17 17 18 19 19 18 18 18 18 17 17 17 17 16 16 16 16 16 16 16 16 17 17 17 17 16 16 17 16 16 18 19 19 20 20 19 19 19 19 18 17 16 15 14 13 13 14 15 15 15 14 14 13 14 15 13 13 14 15 15 14 13 14 13 14
23 19 20 23 20 18 15 13 11 11 14 18 19 20 20 18 17 17 17 16 16 16 17 18 18 18 17 17 17 17 17 16 16 15 15 16 16 15 15 15 15 15 15 15 15 15 16 16 15 16 17 18 18 18 17 17 17 16 15 15 14 14 13 12 11 11 12 13 13 13 13 13 12 12 13 11 11 12 12 13 13 12 12 12 12
23 20 21 22 19 18 15 13 11 11 14 17 18 20 19 18 17 17 17 16 15 15 17 17 17 17 17 17 16 16 16 16 16 15 15 15 14 14 14 14 14 14 14 14 14 14 15 15 14 15 16 17 16 15 14 14 13 13 12 11 11 11 12 11 10 9 10 11 12 12 11 12 12 11 11 10 10 10 10 10 11 11 10 10 10
23 21 22 22 19 17 15 13 11 11 14 17 18 19 19 18 17 17 17 16 15 15 16 17 17 17 16 16 15 16 15 15 15 14 13 12 12 12 12 12 13 13 13 13 13 13 14 15 14 14 15 15 14 14 12 11 11 11 9 8 8 9 10 10 9 8 9 10 10 11 10 11 11 9 10 9 7 8 7 8 8 8 8 8 9
23 22 23 23 20 17 16 13 12 12 14 17 17 18 18 17 17 17 16 16 16 16 16 17 17 16 16 16 15 15 14 14 13 12 11 11 11 11 11 11 11 13 13 12 13 13 14 14 13 13 13 13 13 12 10 9 9 9 8 6 7 8 9 10 9 8 9 9 9 10 10 10 10 9 8 8 6 6 6 6 6 6 7 8 9
22 21 23 24 21 18 16 14 12 12 13 16 17 18 18 18 18 17 16 16 16 16 16 16 16 16 15 15 14 13 13 12 12 11 11 11 12 11 10 10 10 11 13 13 13 13 13 13 12 12 11 11 11 9 8 8 9 9 9 7 6 7 8 9 9 8 8 9 8 9 9 9 10 8 7 7 7 6 6 6 7 7 7 7 9
21 19 22 23 21 19 16 14 13 12 12 16 17 18 19 18 18 18 16 16 16 16 16 16 15 15 15 14 14 13 12 11 11 10 10 10 10 10 9 9 9 9 11 13 13 13 14 13 12 11 10 10 10 7 6 7 8 10 10 8 7 7 6 7 8 8 8 8 8 8 8 8 8 8 7 7 7 7 7 7 7 7 7 7 8
20 19 19 20 20 19 16 15 13 12 12 15 17 18 19 18 18 18 16 16 16 16 15 15 14 14 14 13 13 12 11 10 10 9 9 9 10 11 11 11 10 9 9 12 14 13 13 12 11 9 9 10 8 6 5 6 8 9 10 9 8 7 6 6 7 7 8 8 8 7 7 7 7 7 6 5 7 8 8 8 7 8 8 8 8
20 19 17 17 20 18 17 15 13 12 12 14 16 17 18 17 18 18 16 16 16 16 15 14 14 13 13 13 12 12 10 10 9 9 9 10 12 12 11 11 10 9 8 10 13 14 13 11 10 9 10 9 6 4 4 5 7 7 8 8 7 6 6 6 7 7 7 7 7 7 6 7 7 6 5 4 5 6 7 7 7 8 7 7 7
19 19 17 17 19 18 17 15 13 12 11 13 14 17 18 17 17 17 16 16 16 15 15 14 14 13 12 12 11 11 10 9 9 8 9 10 11 10 9 8 8 7 6 9 13 15 13 12 10 10 9 7 5 3 4 5 6 5 6 7 7 6 5 6 6 7 8 7 7 7 6 7 6 6 6 6 6 6 6 5 6 6 6 6 7
19 18 17 18 17 17 17 15 14 12 12 12 13 15 16 16 17 17 15 15 16 16 15 14 13 12 11 11 11 10 9 8 7 8 10 10 10 9 8 7 7 6 7 9 12 14 14 12 11 10 8 6 4 3 3 5 4 4 5 6 6 6 5 6 6 7 7 7 7 7 6 6 6 5 6 6 7 6 5 3 4 4 4 4 5
20 19 18 17 17 16 16 15 14 12 11 11 12 14 15 15 16 17 16 15 16 16 15 14 13 12 11 11 11 9 8 7 7 8 10 10 10 10 10 9 8 8 8 9 11 13 13 12 10 9 7 6 4 3 3 4 4 5 5 6 5 5 5 6 6 7 7 7 7 6 6 6 5 5 5 5 5 5 3 3 4 4 4 2 2
20 20 18 17 17 16 14 14 14 12 11 10 11 14 16 16 17 17 16 15 15 15 14 13 12 12 11 11 10 8 7 8 7 9 10 10 10 10 9 9 9 8 8 9 11 13 12 11 10 8 7 6 5 3 3 4 5 4 5 5 5 5 5 5 6 6 6 6 6 6 6 6 5 5 5 4 4 3 3 5 6 6 6 5 5
19 19 19 17 17 16 14 13 13 12 10 10 11 14 16 16 17 17 16 15 15 15 13 12 12 11 10 10 9 8 7 7 7 9 10 10 11 10 9 9 10 8 8 9 11 12 12 11 10 9 8 7 5 3 3 4 5 3 4 4 4 4 5 5 5 5 5 5 5 6 6 5 6 6 5 4 3 3 4 5 6 6 7 7 7
18 18 18 17 17 16 14 12 12 12 10 10 11 13 16 15 16 17 15 14 15 15 13 12 11 10 9 9 8 7 6 6 7 8 8 9 11 11 10 10 10 10 8 8 10 11 12 11 10 9 8 7 5 3 3 4 4 3 3 3 3 3 4 5 5 5 5 5 5 5 5 5 6 5 5 4 3 4 4 5 5 5 5 6 6
18 17 17 17 16 15 14 12 11 11 10 10 11 12 14 15 16 16 15 15 14 13 12 12 11 9 9 8 7 6 6 5 6 6 7 8 9 10 9 9 10 10 9 7 8 10 11 11 10 9 8 7 5 3 2 3 4 3 2 3 3 2 3 4 4 4 4 5 5 5 4 5 6 5 5 5 4 4 3 3 5 5 4 4 4
17 16 17 16 15 14 13 13 11 10 10 10 11 12 12 14 16 16 15 15 14 13 11 10 10 9 8 8 7 6 5 5 4 5 5 6 7 8 8 8 8 9 9 7 6 8 9 9 9 8 8 7 5 3 1 2 3 3 2 3 4 2 1 2 3 3 4 4 4 4 4 6 7 5 5 4 4 3 1 3 6 5 4 4 4
17 16 16 15 14 14 13 12 11 10 10 10 12 12 12 14 14 14 15 15 13 13 11 10 9 8 8 7 7 6 5 4 4 4 4 5 6 6 6 7 7 7 8 7 5 5 6 7 7 7 7 6 5 3 1 2 3 2 2 4 5 4 2 2 2 3 4 3 4 4 4 6 7 5 4 4 3 2 2 4 4 4 4 4 4
17 16 15 15 14 14 13 12 11 10 11 11 12 12 12 14 12 13 15 14 13 13 11 10 9 7 7 7 6 5 4 3 2 1 1 3 4 4 4 5 5 5 5 6 5 4 4 5 6 6 6 6 5 3 1 1 2 2 1 3 5 5 4 3 2 3 3 3 4 4 4 6 6 5 4 4 3 2 3 3 4 4 4 3 4
18 17 16 16 15 14 13 12 11 11 11 12 12 12 12 13 12 12 14 13 12 12 11 10 9 8 7 6 5 4 3 2 1 1 2 2 2 3 3 3 3 3 4 4 4 3 2 3 5 6 6 5 5 4 2 1 1 1 1 2 4 6 5 3 3 3 3 3 4 4 3 5 5 4 4 3 3 4 3 4 4 5 4 4 4
18 18 16 16 15 14 13 12 11 11 12 12 12 11 12 13 12 12 12 11 11 10 10 9 8 7 6 5 4 4 3 2 0 1 2 2 3 4 4 3 4 3 2 2 2 2 1 2 4 5 6 7 6 6 4 3 2 1 1 3 5 7 6 5 4 4 4 3 4 4 3 5 6 4 4 4 5 4 3 4 4 5 5 5 5
17 16 17 16 15 14 12 11 11 11 11 11 11 11 11 11 11 11 11 10 9 10 10 8 6 5 4 4 3 4 4 2 0 2 1 2 3 5 6 5 5 5 3 1 0 1 1 1 3 5 7 8 8 7 5 4 5 3 2 4 6 6 6 6 5 5 5 4 4 4 3 4 6 6 6 6 7 6 4 4 5 5 6 6 6
17 17 17 16 16 15 13 12 11 11 11 11 11 10 10 9 9 10 11 10 9 9 9 7 6 5 4 3 3 4 4 1 2 3 3 3 3 4 5 5 5 5 6 4 3 3 3 3 3 4 5 7 7 7 6 5 5 5 4 3 5 5 5 6 6 6 7 6 6 6 4 4 6 7 8 7 8 8 7 6 6 6 7 7 6
18 17 17 17 16 14 13 13 11 11 10 10 10 10 9 8 9 10 10 10 9 8 7 6 6 5 4 2 2 2 3 2 2 3 4 4 4 5 5 6 6 6 7 5 5 6 6 5 6 5 5 6 7 7 7 6 5 5 6 5 4 5 5 6 7 7 8 9 8 8 6 6 6 7 7 7 8 8 7 7 7 7 9 9 8
18 16 17 17 15 13 12 13 12 12 10 9 9 9 9 8 8 9 9 9 8 7 6 5 4 3 2 1 1 3 3 2 2 4 4 4 4 6 6 7 6 5 7 7 6 6 7 7 7 7 7 6 7 8 8 7 6 6 7 8 7 6 6 7 7 8 9 10 11 10 9 8 7 7 7 7 7 7 7 7 7 8 8 8 8
16 15 16 15 14 12 12 12 12 12 11 9 9 8 9 9 9 8 8 8 7 6 5 5 4 3 2 2 2 2 1 1 3 4 5 5 6 7 8 8 8 7 7 7 6 6 6 7 7 7 7 8 8 8 8 8 8 8 8 9 10 9 9 8 8 8 9 11 12 12 11 10 9 8 8 8 8 8 8 9 8 8 8 6 6
15 15 15 14 13 12 12 12 12 12 10 9 9 8 9 9 8 8 7 7 6 5 5 5 3 2 2 2 1 1 2 3 4 5 6 6 7 8 8 9 9 9 8 7 7 7 7 7 7 7 7 9 10 10 9 8 9 10 9 10 11 12 11 10 10 10 11 11 13 14 14 13 12 10 9 9 9 9 9 10 9 9 8 6 6
16 14 14 13 12 12 11 12 11 11 10 9 8 8 9 9 8 8 7 6 6 5 5 4 2 1 1 1 2 4 4 5 5 6 7 7 9 9 8 8 8 9 9 8 8 9 8 8 9 9 9 10 10 11 11 10 9 9 11 11 12 12 12 12 12 12 12 12 12 15 16 15 14 12 10 11 11 10 10 10 10 10 9 8 7
15 14 14 13 13 12 12 11 11 10 9 9 8 8 8 7 7 7 7 6 5 4 3 2 1 0 2 3 5 6 7 7 7 7 8 9 9 9 8 8 8 8 8 8 8 9 9 8 9 9 10 11 12 13 13 12 10 9 11 12 13 13 13 14 15 14 14 13 13 15 17 17 16 15 13 14 12 11 11 10 10 11 9 9 8
15 15 13 12 13 13 12 12 11 9 9 8 7 7 7 7 7 7 6 5 4 3 3 1 0 1 3 4 6 8 8 9 9 9 10 10 9 8 9 9 8 8 8 8 9 9 9 8 8 8 9 10 12 14 16 16 14 12 11 12 14 16 15 15 17 16 15 15 14 14 17 18 17 17 15 16 15 13 13 11 11 12 10 9 9
15 14 13 12 13 13 12 11 10 9 8 7 7 8 8 8 8 7 6 5 4 3 2 1 1 3 4 6 7 8 8 9 10 10 11 11 10 10 10 10 8 8 9 10 10 8 7 8 8 8 8 9 10 11 13 15 15 14 14 14 15 16 15 15 17 18 17 17 16 15 18 19 17 17 17 17 18 15 15 13 12 12 12 11 10
14 14 13 13 13 13 12 10 10 10 8 8 8 9 9 8 8 6 5 4 3 2 1 1 3 4 5 6 7 7 8 8 9 9 10 10 10 10 10 10 10 10 11 11 12 9 7 8 8 9 8 9 10 10 11 12 13 13 13 16 17 16 17 16 16 18 17 17 16 16 18 20 18 19 18 18 19 18 17 15 14 14 13 13 11
14 14 13 13 13 12 11 10 10 10 9 8 8 8 8 6 6 5 4 3 2 1 1 2 4 4 5 6 6 6 7 7 7 8 9 10 10 10 10 10 11 11 11 11 12 11 9 8 9 11 10 9 10 10 11 12 13 12 12 14 16 17 18 19 18 17 16 16 16 16 18 20 20 21 20 18 18 20 19 17 16 16 15 15 13
14 14 14 13 13 12 11 10 10 9 9 9 8 8 7 5 5 4 4 4 3 2 2 2 3 4 5 6 6 6 6 6 6 7 9 10 11 10 9 10 11 11 10 10 11 11 9 8 8 10 11 11 11 12 12 12 13 13 12 13 13 14 15 18 20 18 17 16 16 16 16 18 20 23 22 20 17 18 20 19 18 17 17 16 14
14 13 13 13 13 12 11 10 10 9 9 8 8 7 6 5 4 4 5 4 3 2 1 3 3 3 4 5 5 4 4 5 6 8 9 9 10 9 9 10 10 10 9 8 9 8 8 8 9 9 10 11 12 13 13 12 12 12 13 13 14 13 13 16 19 19 18 17 17 17 16 18 21 23 25 24 20 17 18 19 19 19 18 18 16
13 12 12 13 13 12 10 10 9 9 8 7 7 6 5 5 5 5 4 2 1 1 1 2 2 3 3 3 3 3 3 5 6 7 7 8 9 9 9 8 7 7 7 7 8 8 8 9 10 10 10 11 12 12 12 12 12 13 14 15 14 14 13 15 16 17 16 17 19 19 19 21 23 24 27 26 23 19 17 17 19 20 20 20 18
12 12 11 11 12 11 10 10 9 9 8 7 7 6 5 5 6 5 3 1 1 0 1 1 2 2 3 3 3 3 4 5 5 6 6 6 6 6 7 7 6 6 6 7 8 8 9 10 11 12 11 12 13 13 13 13 13 14 14 15 15 14 13 13 14 15 15 16 18 19 20 23 25 26 28 28 26 23 19 17 16 18 20 20 21
12 12 11 10 11 11 11 10 9 9 8 8 7 6 6 5 5 4 2 2 2 2 2 2 3 3 3 3 3 3 3 4 4 4 4 4 4 5 5 6 5 6 7 8 8 9 10 10 11 13 13 14 15 14 14 14 13 13 14 16 16 15 14 12 13 14 14 14 15 16 17 19 23 27 28 28 28 23 18 18 17 16 17 19 21
11 12 11 11 11 11 12 11 10 9 9 8 7 6 6 6 5 4 3 3 3 3 2 2 3 4 4 4 3 2 2 2 2 2 2 3 4 4 5 5 6 6 7 8 9 10 11 12 13 14 14 16 17 16 15 14 13 12 13 15 16 16 14 12 13 14 14 14 14 14 14 15 18 23 27 29 30 24 18 19 19 18 16 16 18
11 12 11 11 11 11 11 10 9 9 8 8 7 7 7 6 6 5 5 4 3 3 3 3 4 5 4 4 3 2 2 2 2 2 2 3 3 4 5 5 6 7 8 9 10 11 12 13 13 14 15 16 18 17 16 14 12 11 11 11 12 14 13 13 15 15 14 14 14 14 14 15 15 18 24 28 30 29 24 21 20 20 19 17 17
12 12 11 11 11 10 10 9 9 9 9 10 9 8 8 6 6 5 6 5 4 5 6 5 5 5 5 4 4 3 3 3 2 3 3 4 4 5 5 5 6 7 8 9 10 11 12 13 14 15 15 16 17 17 17 16 15 13 10 8 7 7 9 10 13 16 15 14 15 15 14 15 16 16 20 25 29 32 29 23 20 21 21 19 18
13 12 11 11 11 9 9 8 8 9 10 10 10 9 8 7 6 5 6 7 7 8 7 6 6 6 6 5 5 5 4 4 4 4 4 4 4 5 5 6 7 6 7 9 10 11 12 13 15 15 15 15 16 16 16 17 19 16 8 4 3 4 8 7 9 13 14 15 16 17 16 16 16 15 16 19 24 29 30 28 24 22 22 21 20
12 12 12 12 11 10 9 8 8 9 9 9 10 9 8 7 7 6 7 8 8 7 6 6 7 7 7 6 6 6 6 6 5 5 5 5 5 5 5 6 6 6 7 8 10 11 12 13 14 16 16 16 17 17 17 17 19 20 15 9 3 3 6 5 6 8 9 13 15 17 18 17 16 17 18 18 19 22 26 30 27 24 26 24 22
11 11 11 11 11 11 10 10 9 9 10 10 10 9 7 7 8 8 7 7 7 5 5 6 7 7 7 6 6 7 7 7 6 6 6 6 6 6 6 6 6 6 7 8 10 11 12 12 13 15 16 16 17 18 19 18 17 20 22 20 15 13 10 4 4 5 6 10 13 15 18 19 19 19 20 20 19 19 21 26 26 25 29 28 24
11 11 11 10 9 10 10 10 9 10 10 10 10 9 9 9 9 8 7 7 7 5 4 6 7 6 5 5 6 8 8 8 8 8 8 8 7 7 7 7 7 7 8 9 10 11 12 13 13 15 16 17 17 18 20 19 17 18 20 23 25 24 20 12 7 6 6 8 10 12 15 17 19 20 22 21 20 20 21 26 27 24 27 29 26
11 12 11 11 11 11 11 10 11 12 11 10 11 10 10 10 9 9 8 8 8 7 5 5 5 4 4 5 6 7 8 9 9 9 9 9 8 7 7 7 7 8 9 10 11 12 13 14 15 16 17 18 17 17 21 19 17 17 17 18 19 20 23 23 17 11 7 7 8 10 12 15 17 19 22 22 23 24 24 27 28 26 28 30 29
11 13 13 12 13 13 13 12 13 13 12 12 12 11 10 9 9 9 9 8 8 6 5 4 3 3 5 6 7 8 8 9 9 9 9 9 9 9 9 9 9 9 11 11 12 13 13 14 15 16 16 18 16 16 19 19 18 17 15 15 13 14 20 23 21 15 11 10 9 9 10 12 14 18 22 23 24 26 26 27 28 28 28 29 31
11 13 14 14 15 15 14 14 14 14 14 13 13 12 10 9 9 8 8 7 6 5 4 3 3 4 6 8 9 9 9 10 9 9 10 11 10 11 11 11 11 11 11 12 13 14 14 14 15 16 16 17 17 17 19 20 19 18 15 14 13 13 12 11 14 15 14 12 11 10 10 10 11 16 21 24 26 26 26 27 26 26 26 27 31
11 14 17 17 17 17 17 17 17 16 15 14 13 12 10 8 7 7 7 6 5 5 4 5 5 7 9 10 11 11 12 12 11 11 12 12 12 12 12 11 11 12 12 12 14 15 15 15 16 17 16 16 17 18 18 18 19 18 15 13 14 13 10 7 9 13 12 11 10 9 11 13 13 15 18 22 26 27 26 27 27 24 25 29 32
Wind_Direction
154 151 153 162 154 151 151 146 136 132 142 143 140 137 131 126 126 126 128 129 131 132 129 126 121 120 118 117 117 116 116 115 115 112 111 110 110 109 109 108 106 105 106 106 104 103 100 98 95 95 96 98 100 100 98 97 96 94 92 93 93 94 94 94 95 95 97 97 95 93 92 91 91 92 90 88 88 88 90 90 87 83 83 82 82
150 151 153 161 155 151 150 145 137 132 141 144 140 136 131 124 124 123 123 124 124 125 124 123 121 120 119 119 118 116 116 115 113 112 111 111 110 109 108 107 107 108 109 108 106 106 104 101 97 98 98 99 100 100 98 97 96 95 94 92 92 92 92 92 92 94 96 97 96 97 96 94 91 92 91 89 88 88 88 89 87 83 85 84 82
144 149 153 159 154 151 151 144 136 131 140 142 140 137 132 125 124 123 123 122 121 121 121 123 122 121 120 120 119 118 116 114 112 111 111 110 109 108 106 105 106 109 111 111 109 110 108 102 101 102 102 101 100 98 95 94 94 94 94 94 93 91 89 89 90 95 99 102 101 98 96 95 92 92 91 90 90 90 90 90 90 89 88 85 83
142 146 149 155 153 151 152 145 134 130 138 139 139 137 132 126 124 124 122 120 120 122 122 122 123 123 123 122 120 118 115 113 112 110 110 107 107 107 106 103 103 107 109 110 108 110 107 102 105 107 106 104 101 97 93 88 87 86 87 89 91 88 84 83 86 95 103 106 103 95 92 92 90 92 95 94 92 94 93 92 94 96 93 89 90
140 143 147 151 150 152 151 145 133 130 138 138 137 136 132 127 125 124 120 118 119 121 123 123 124 125 124 122 119 117 114 113 112 111 111 109 110 112 110 104 104 107 109 109 107 106 106 104 109 111 110 107 103 99 93 86 82 80 78 80 86 87 82 79 80 91 103 105 99 92 91 90 87 89 95 96 92 95 97 96 99 102 100 95 93
138 141 147 149 148 152 151 144 134 130 138 139 136 134 131 127 125 122 119 119 119 120 122 124 125 124 123 121 119 116 114 113 112 112 113 113 115 116 111 106 109 111 111 114 111 106 106 108 109 112 113 109 106 102 95 87 80 75 74 76 85 88 82 78 78 90 101 99 93 90 89 89 86 83 87 88 89 95 97 97 101 104 102 96 88
137 143 150 151 149 151 150 146 137 130 138 142 137 133 129 126 124 121 120 120 120 122 123 124 124 124 124 120 118 117 117 116 110 108 106 106 106 108 109 110 117 118 117 116 115 111 112 113 110 112 111 111 112 104 96 85 76 73 76 84 92 92 81 75 77 90 100 94 90 89 86 85 83 79 73 68 72 84 90 92 93 94 94 96 90
137 144 151 152 151 152 151 147 139 129 137 144 138 133 131 127 124 121 121 121 122 124 124 125 125 124 122 119 118 116 116 111 103 99 97 94 95 97 101 105 115 125 126 121 118 116 118 119 115 114 105 111 118 106 94 78 73 75 80 90 98 99 86 75 78 90 98 93 91 89 85 82 83 78 58 60 71 77 81 79 77 80 83 94 96
137 143 150 152 152 152 152 150 140 128 135 146 143 137 133 128 125 124 123 123 124 124 125 125 125 124 120 119 117 110 106 104 101 99 95 90 93 97 97 98 103 117 132 134 130 122 121 123 119 117 108 116 124 109 91 73 73 76 77 85 95 105 91 77 81 93 96 95 94 89 90 88 83 78 63 67 78 80 80 75 69 69 72 77 87
138 144 148 149 151 153 154 151 140 130 134 147 147 141 136 130 128 128 125 125 126 125 126 126 125 122 120 119 114 108 103 102 101 99 93 88 87 90 92 95 94 97 117 136 142 133 122 125 126 124 121 125 127 110 88 71 71 74 77 82 94 105 91 77 79 91 99 99 97 89 94 92 83 82 72 65 74 80 80 82 81 76 73 69 71
139 144 145 145 150 154 155 150 141 133 135 147 149 145 140 133 132 131 128 128 128 127 127 126 124 121 120 120 114 109 102 97 93 90 88 88 85 82 86 92 97 99 106 125 144 144 130 131 136 130 127 127 124 109 80 67 66 70 80 86 96 102 88 75 79 94 102 104 102 95 86 81 81 79 63 63 84 88 83 84 85 80 78 76 74
142 143 145 145 149 155 155 151 144 136 135 146 150 149 143 136 133 131 132 131 130 130 129 128 125 124 124 121 115 109 103 98 92 88 87 88 88 86 93 104 116 123 119 124 144 152 145 145 143 130 126 126 122 108 71 59 55 70 90 97 101 97 81 71 87 104 107 109 107 104 89 76 82 75 60 68 84 90 90 90 90 85 81 89 87
144 144 145 144 146 153 156 153 147 140 136 141 150 151 145 137 134 133 134 133 132 131 132 132 129 129 126 121 116 112 107 101 92 86 84 84 87 85 84 89 104 111 109 120 143 156 158 155 146 133 127 126 121 98 67 54 58 91 108 107 102 89 73 69 95 111 114 117 112 109 100 87 87 81 71 70 80 89 91 94 101 97 87 99 98
146 144 144 144 147 152 157 156 149 141 135 136 147 151 145 138 138 140 138 134 133 134 137 136 133 130 128 123 115 114 110 98 89 84 81 81 82 79 73 74 81 92 101 113 133 151 160 159 150 139 132 128 124 95 60 51 68 105 122 116 103 81 68 73 98 116 120 123 120 117 106 101 104 94 85 80 89 96 86 83 91 89 87 99 99
145 146 146 146 147 150 153 154 150 142 134 134 143 150 149 144 143 145 139 134 135 137 139 138 136 134 132 126 117 120 113 97 85 80 81 81 79 78 77 77 80 90 105 114 127 143 155 158 151 141 136 132 123 96 54 48 65 104 133 127 107 83 71 86 106 118 126 129 127 125 113 116 127 113 107 103 99 94 79 81 82 79 82 84 80
145 146 147 146 147 147 148 151 151 142 133 135 142 150 152 149 146 144 137 136 138 138 140 138 138 139 136 127 124 128 112 97 85 74 73 75 74 75 74 71 72 78 96 116 128 138 144 147 145 140 138 135 125 100 61 48 57 94 138 138 118 89 68 88 113 119 127 134 132 131 121 129 137 126 129 127 111 104 93 88 86 81 81 79 78
145 147 146 147 148 148 149 150 148 142 138 140 142 148 153 150 145 141 137 138 140 140 142 143 142 143 138 128 128 128 113 100 89 73 63 66 68 69 69 65 65 67 81 111 129 136 140 142 143 144 142 139 130 103 73 52 50 73 135 155 133 97 64 77 108 119 127 134 137 136 126 142 148 134 135 133 127 123 107 99 100 93 86 84 80
147 149 148 149 150 150 151 150 147 144 141 140 138 144 150 148 146 142 138 141 142 144 146 145 145 144 139 132 131 124 116 107 89 70 59 59 61 67 70 66 63 64 71 98 130 141 144 147 149 151 151 148 138 110 75 49 46 58 123 172 161 123 65 72 106 123 127 132 138 138 138 152 149 141 140 138 145 139 113 119 127 117 108 105 96
149 151 150 152 153 152 153 152 149 145 143 140 136 141 147 146 147 144 142 144 144 147 150 147 145 144 141 137 135 126 118 112 85 62 58 54 55 66 72 71 68 65 69 83 123 148 153 157 159 163 164 160 147 130 95 40 38 49 115 166 180 170 87 86 131 138 134 140 143 147 152 147 145 153 155 150 161 166 162 146 143 136 132 129 111
152 154 153 156 156 156 156 153 149 146 145 141 139 141 145 143 142 146 148 146 144 148 152 150 144 145 149 144 138 128 120 113 88 60 47 45 52 59 65 75 80 73 73 80 104 147 164 169 172 180 177 172 166 152 131 47 36 34 119 165 179 181 172 158 167 156 152 156 146 156 161 148 152 161 160 160 175 188 184 163 155 148 147 151 136
155 157 157 160 161 161 158 153 148 146 146 141 141 142 144 142 139 144 149 149 148 147 148 149 145 152 158 150 144 137 132 123 97 76 42 44 49 49 53 64 83 91 84 81 91 123 166 183 190 200 194 187 190 186 174 73 58 43 92 169 184 192 194 183 181 171 173 172 157 172 168 153 159 165 168 179 189 192 197 194 180 173 171 181 179
158 160 163 167 166 163 159 154 149 147 148 144 142 144 148 148 142 141 147 153 153 149 148 152 153 159 160 153 157 152 146 156 136 41 33 43 44 45 50 32 47 92 98 90 87 98 148 194 210 219 218 211 209 212 221 220 101 65 92 174 198 207 212 206 201 196 194 192 185 195 171 157 166 175 189 196 218 219 208 199 184 187 190 191 198
161 163 166 171 167 162 161 156 149 147 150 148 146 151 156 153 146 142 148 156 159 161 161 161 161 162 162 161 171 174 178 199 200 54 26 30 50 55 60 35 18 40 76 107 102 101 129 207 224 233 236 235 230 226 221 218 225 224 140 181 206 216 223 229 226 218 216 215 210 218 190 167 171 188 216 219 233 238 205 187 188 204 205 202 210
163 164 165 169 165 163 163 155 148 149 150 148 149 154 157 155 149 146 152 158 163 171 175 175 175 177 180 182 192 203 214 232 89 86 47 35 46 41 41 36 27 28 30 22 271 230 243 253 239 240 244 246 244 239 228 216 222 230 211 191 204 215 224 234 239 233 236 241 236 245 227 183 179 199 226 229 232 228 204 202 207 217 218 217 223
163 165 166 167 165 165 162 157 153 152 152 149 152 155 155 155 152 151 156 163 167 169 177 184 190 200 207 213 216 212 213 194 85 63 47 43 33 18 17 15 13 15 16 11 346 317 285 275 274 266 258 257 257 252 238 222 220 227 230 205 195 201 216 230 239 242 248 252 255 263 252 223 203 208 227 230 229 223 211 214 216 220 221 221 226
165 166 168 167 166 166 162 159 157 155 153 152 154 152 150 150 149 152 156 164 171 172 178 185 194 204 210 220 211 184 166 132 68 33 26 24 15 4 0 358 357 355 359 4 359 353 336 305 287 280 282 279 278 274 257 237 224 228 236 235 212 203 215 229 241 248 253 257 261 266 260 246 225 220 234 232 230 226 215 220 223 222 223 228 234
165 168 171 169 166 165 162 159 158 155 153 152 153 149 148 147 145 149 156 164 171 175 180 182 181 182 175 160 136 137 138 106 20 11 10 7 3 354 349 349 350 344 344 346 347 352 350 338 312 287 283 287 292 293 284 263 241 233 241 250 253 242 237 238 244 252 258 262 261 262 261 255 245 237 234 225 229 231 221 227 232 230 236 241 235
165 169 172 171 166 162 161 160 158 157 154 154 154 150 150 145 141 146 156 162 165 165 165 164 158 148 133 114 119 127 114 6 351 353 351 349 344 341 341 340 340 336 333 333 331 332 333 336 330 308 289 281 282 286 290 281 261 248 246 253 262 263 261 256 253 256 262 266 263 260 259 256 253 247 229 216 227 233 228 231 231 232 248 247 218
168 171 172 170 167 164 163 162 161 160 158 159 157 155 155 147 143 151 155 154 156 153 154 157 154 139 113 90 90 69 6 348 341 337 337 335 334 336 335 332 332 329 323 318 316 318 315 313 318 315 302 288 278 274 275 279 270 260 254 255 264 269 271 268 265 263 265 270 266 260 257 255 253 249 228 214 222 231 230 229 229 233 242 233 207
170 171 173 170 169 168 166 166 166 167 165 164 162 157 157 152 149 156 154 149 153 150 149 157 160 150 73 22 9 1 351 345 336 330 331 328 329 331 329 327 327 323 317 312 308 310 309 306 304 300 298 293 286 279 274 273 268 260 259 261 264 269 272 275 276 272 270 271 268 261 256 253 252 250 235 219 219 224 229 227 229 235 230 227 222
170 171 174 171 170 171 170 172 170 170 169 166 163 155 153 153 153 157 155 150 155 150 148 159 165 223 341 350 354 353 347 342 336 332 331 329 328 327 328 331 329 325 316 308 306 307 306 303 299 294 291 287 285 281 276 273 267 258 260 264 266 267 268 275 282 280 276 273 266 258 253 251 250 249 239 230 226 218 222 227 227 230 227 230 235
171 170 172 171 170 172 173 174 171 169 167 161 157 151 149 151 152 156 155 149 153 147 148 166 252 311 332 343 349 349 344 341 338 334 330 328 328 327 331 334 332 330 323 316 310 305 302 299 296 294 291 286 283 280 277 274 271 265 261 262 265 267 265 270 279 281 279 275 268 257 248 245 247 248 242 235 233 220 218 226 226 225 225 229 234
169 169 168 169 169 171 172 173 171 166 160 152 146 146 144 143 144 148 146 140 141 136 137 159 325 326 333 338 340 342 340 338 333 328 325 323 324 326 329 331 331 327 324 320 314 307 301 298 295 294 292 285 282 281 280 277 274 270 266 264 263 266 264 263 272 276 276 274 270 261 247 239 239 245 244 238 235 228 221 223 224 225 225 225 231
165 168 167 167 169 169 169 170 168 163 154 145 141 141 140 138 140 143 141 135 135 139 131 355 346 338 336 337 336 334 332 329 325 321 319 317 318 320 323 324 325 323 322 319 314 311 304 300 298 300 296 286 281 281 282 280 276 273 271 270 268 268 267 265 268 270 270 270 267 260 246 237 235 237 240 239 236 232 227 223 223 225 227 226 230
163 167 168 167 168 167 168 167 164 160 151 145 142 141 142 143 144 141 135 124 110 114 60 4 349 342 338 335 328 323 320 319 318 316 315 315 316 318 320 321 322 321 320 319 317 313 308 304 304 305 303 292 286 286 285 283 279 275 271 271 271 271 272 271 270 269 267 265 262 256 246 238 237 236 236 236 235 234 231 225 222 224 228 229 229
164 165 165 165 166 166 167 164 161 159 153 149 145 144 146 145 143 132 114 90 68 66 49 356 335 333 330 326 320 316 314 314 314 316 318 319 320 321 322 322 321 319 315 315 315 312 309 306 303 303 301 296 293 292 290 287 283 278 273 272 273 272 272 271 271 270 267 262 256 250 244 240 240 239 237 234 232 233 233 228 222 223 226 225 224
166 164 162 162 164 164 166 164 163 163 159 155 151 151 148 142 138 119 100 77 50 44 8 328 326 327 323 320 321 320 318 322 324 323 323 321 321 321 321 321 319 316 311 309 308 307 307 304 300 297 296 295 292 291 289 287 286 283 279 276 275 274 271 270 271 270 265 259 252 245 242 245 245 245 241 237 233 231 233 231 224 223 225 223 223
165 163 160 162 163 164 166 164 165 164 162 162 159 155 147 139 126 104 95 85 28 13 334 323 333 335 336 338 337 335 330 328 320 316 316 316 318 319 320 321 317 311 306 304 303 304 304 300 298 294 290 287 285 285 285 285 285 283 281 277 274 272 270 269 268 266 261 255 250 248 247 247 245 244 241 238 236 233 230 229 227 227 227 226 226
164 163 161 161 163 164 165 164 165 165 161 161 160 155 145 132 115 102 103 111 111 71 26 19 7 356 6 16 8 352 335 323 313 310 313 315 318 320 323 323 314 307 303 302 302 302 301 299 296 293 288 283 282 283 282 282 282 279 278 276 272 269 267 266 263 260 257 253 252 250 250 249 245 241 238 236 236 235 229 225 224 227 230 230 227
163 164 162 161 163 164 164 164 165 163 161 159 159 157 145 129 114 109 113 107 105 90 71 55 32 28 38 40 26 6 345 333 326 322 322 319 320 324 329 327 316 308 303 302 303 300 299 298 294 291 288 283 281 281 282 284 283 279 278 276 274 272 268 263 259 256 254 253 253 250 248 247 244 241 237 234 234 234 229 226 222 223 227 229 227
160 165 165 165 165 166 165 165 165 164 163 160 159 160 151 138 128 129 131 123 117 96 73 52 50 55 61 63 56 36 14 5 356 340 327 320 323 326 330 327 322 317 311 308 308 305 301 299 297 294 290 288 286 282 280 280 276 274 278 277 274 273 270 264 259 254 252 252 253 251 247 243 241 239 237 234 233 232 229 229 226 224 224 225 226
160 165 167 168 168 167 166 164 163 163 164 161 159 155 146 136 129 133 137 130 119 96 84 81 82 81 80 80 76 63 50 37 23 7 343 330 324 320 320 318 318 321 322 319 314 308 304 300 298 297 295 293 291 287 282 272 261 262 274 278 275 271 265 261 259 254 250 251 250 248 245 240 237 236 238 238 236 234 232 231 228 226 223 221 223
159 165 166 166 164 163 161 161 159 159 162 160 153 141 134 134 133 134 131 122 118 113 108 107 102 93 86 81 76 74 69 57 35 12 355 343 330 319 316 316 317 319 318 315 309 303 300 297 294 293 293 292 287 285 282 269 258 260 268 272 276 278 266 254 252 251 249 247 244 242 241 239 239 237 239 241 240 238 234 230 228 227 224 221 220
155 164 165 164 162 160 158 158 157 157 158 153 143 136 137 145 143 134 128 119 119 123 117 107 99 92 88 83 78 71 58 41 21 7 359 347 339 332 328 325 322 315 306 304 301 298 297 295 294 291 289 286 282 281 279 272 263 259 257 258 253 267 268 262 259 254 245 243 241 239 240 240 240 239 237 236 237 237 234 232 231 228 225 223 221
151 160 168 171 168 165 161 156 156 155 151 144 140 140 142 146 143 137 134 128 123 123 112 98 94 90 86 81 71 55 38 27 18 12 6 356 350 345 340 333 326 318 310 307 305 303 300 297 295 293 288 284 285 286 283 277 267 258 252 249 239 263 268 276 284 262 234 238 242 240 240 240 240 238 236 234 232 233 233 234 233 229 227 227 225
144 152 164 171 168 165 160 156 154 148 142 140 141 142 141 143 149 148 144 139 129 116 101 97 94 88 80 72 55 40 27 19 17 14 8 1 357 354 353 345 338 333 328 321 314 310 305 301 297 295 292 288 288 288 284 280 274 264 255 249 244 251 261 270 283 269 236 237 239 239 241 240 240 238 236 236 232 229 231 233 232 230 230 228 225
137 144 151 154 154 154 151 149 146 141 138 141 143 143 141 139 147 146 134 127 120 109 102 99 93 81 66 53 36 26 21 17 15 12 8 6 3 1 359 354 352 346 340 331 319 313 307 302 299 295 293 291 289 288 286 285 282 275 268 260 250 246 253 254 248 267 268 247 229 230 239 240 239 239 237 237 234 231 231 235 233 230 230 229 224
133 139 142 142 144 144 142 139 137 139 141 145 148 148 146 142 142 135 120 111 109 107 108 97 84 64 45 40 31 23 22 19 16 14 10 9 7 4 1 357 356 350 344 338 326 323 320 313 311 305 296 293 293 291 289 289 287 283 284 279 263 256 261 254 242 250 269 269 253 238 238 238 238 239 238 237 236 235 234 235 234 232 232 229 224
132 135 139 141 141 140 140 140 140 144 148 152 152 148 148 142 134 124 111 103 98 97 97 79 62 46 32 30 27 22 20 17 18 18 14 13 7 3 1 357 356 351 344 340 335 334 333 327 322 315 306 300 296 292 290 292 292 287 290 290 277 273 270 253 242 245 248 255 266 259 244 231 231 238 238 237 238 238 237 235 233 233 231 226 225
130 134 137 138 138 137 140 143 143 145 148 150 148 142 139 133 123 110 96 91 86 80 72 56 41 26 21 23 23 19 16 14 15 15 12 11 6 2 1 357 355 351 346 343 343 344 341 334 325 319 317 312 304 299 298 300 297 288 287 290 286 286 280 252 241 247 245 247 258 265 259 238 229 235 234 233 236 238 238 235 232 230 227 224 225
128 130 134 137 138 139 142 141 139 140 141 142 139 134 132 125 110 91 78 77 76 71 63 53 39 27 25 24 20 15 12 11 11 12 9 6 3 2 1 359 357 353 350 349 346 344 341 336 330 326 325 322 315 311 306 306 307 301 291 284 282 285 285 270 253 246 240 243 250 259 258 249 244 242 237 235 237 239 239 235 231 226 225 227 223
Height
799 802 805 807 809 810 813 813 813 814 814 814 814 813 813 814 815 817 818 819 819 820 821 821 822 823 824 824 825 825 825 826 826 826 826 827 827 828 828 828 828 829 829 829 830 830 830 830 831 831 831 831 831 831 831 831 832 832 833 833 833 833 833 834 834 834 834 834 834 833 834 834 834 833 833 834 834 833 832 832 832 833 833 833 833
798 802 804 807 809 811 813 813 814 814 815 815 814 815 814 815 817 818 819 820 821 822 822 823 824 824 825 826 826 826 827 827 828 828 828 828 828 829 829 829 829 830 830 830 831 831 831 831 832 832 832 833 832 832 832 833 833 833 833 834 834 835 835 835 835 836 835 835 835 835 835 835 835 834 834 835 835 834 833 833 834 834 834 834 834
798 803 804 807 809 811 813 814 814 814 815 815 815 815 816 817 818 819 820 822 822 824 824 825 825 826 827 827 828 828 828 829 829 829 829 829 829 830 830 831 831 831 831 831 832 832 832 832 833 833 834 834 834 834 834 834 834 834 834 835 835 836 836 836 837 836 836 836 836 836 836 836 836 836 835 836 836 835 835 834 835 835 835 835 834
798 803 805 807 810 812 813 814 815 815 815 815 816 816 817 818 819 820 822 823 824 825 826 826 827 827 828 829 829 829 830 830 831 831 831 831 831 831 831 832 832 832 832 833 833 833 833 834 834 834 835 835 835 835 836 836 836 836 836 836 836 837 837 837 837 837 837 837 837 837 837 837 837 837 836 837 837 836 836 836 836 835 836 836 835
799 803 806 808 810 812 814 814 815 815 816 816 817 817 818 818 820 822 823 824 825 826 827 828 828 829 830 830 831 831 831 831 832 832 832 832 832 832 833 833 834 834 834 834 834 834 834 835 835 835 836 836 836 836 836 836 837 837 837 837 837 837 837 838 838 838 838 838 838 838 839 838 838 838 837 838 838 838 837 837 836 836 836 836 836
800 803 806 809 811 813 814 815 815 816 816 817 817 818 819 820 821 822 824 825 826 828 828 829 830 830 831 831 832 832 833 833 833 834 834 833 833 833 834 834 834 835 835 835 835 835 836 836 836 836 837 837 837 837 837 837 837 838 838 838 838 838 838 838 838 838 839 839 839 839 840 840 840 840 839 839 839 839 838 838 837 837 837 837 837
800 804 806 809 811 813 814 815 815 816 817 817 818 819 820 820 822 824 825 826 828 829 829 830 831 831 832 833 833 833 834 834 835 835 835 835 834 834 834 835 835 835 836 836 836 837 837 837 837 838 838 838 838 838 838 838 838 838 838 838 838 839 839 839 839 839 839 840 840 840 841 841 841 841 840 840 840 840 839 839 838 838 837 837 838
801 804 807 810 812 813 814 815 815 816 817 818 819 819 820 821 823 825 826 827 828 829 830 831 832 832 833 834 834 835 835 835 836 836 836 836 835 835 835 835 835 836 836 836 837 837 838 838 838 839 839 839 839 839 839 839 839 839 839 839 839 839 839 839 839 840 840 841 841 841 842 842 842 842 841 841 841 841 840 840 839 839 839 838 839
803 805 808 810 812 814 815 815 816 817 818 819 819 820 821 822 824 825 827 828 829 830 831 832 833 833 834 835 835 836 836 837 837 837 837 837 836 836 836 836 836 836 836 836 837 838 839 839 839 840 840 839 840 840 840 840 840 840 839 839 839 840 840 840 840 840 841 842 842 842 843 843 843 843 842 842 841 841 841 841 841 840 840 840 839
803 807 809 811 813 814 815 816 816 817 818 819 820 821 822 823 824 826 827 829 830 831 832 833 834 834 835 835 836 837 837 838 838 838 838 838 837 837 837 837 837 837 837 837 837 838 839 840 840 840 840 840 840 841 841 841 841 841 840 840 840 841 841 841 841 841 842 842 843 843 843 844 844 844 843 842 842 842 842 842 842 842 841 841 840
805 807 810 812 813 814 815 816 817 818 819 820 820 821 822 824 825 826 828 829 830 831 833 834 834 835 836 836 837 837 838 838 839 839 839 839 838 838 838 838 838 838 837 838 838 838 839 840 840 840 840 841 841 841 842 842 842 841 841 841 841 841 841 841 842 842 842 843 844 844 844 844 845 844 843 843 843 843 842 842 842 842 842 841 841
806 808 810 812 813 814 816 817 818 819 819 820 821 822 823 824 826 827 828 830 831 832 833 834 835 836 836 837 838 838 839 839 840 840 840 839 839 839 839 839 838 838 838 838 838 839 839 840 840 840 841 841 841 842 842 842 842 842 842 842 842 842 842 842 842 843 843 844 844 844 845 845 845 845 844 844 843 843 843 843 843 843 843 842 842
806 808 811 812 814 815 816 818 818 819 820 821 822 823 824 825 826 828 829 830 831 833 834 835 835 836 837 838 838 839 840 840 840 840 840 840 840 840 839 839 839 838 838 838 838 839 839 840 841 841 842 842 842 842 843 843 843 843 843 843 843 843 843 843 843 843 843 844 844 845 845 846 846 845 845 844 844 844 843 843 843 843 843 843 843
806 809 811 813 814 816 817 818 819 820 821 822 822 823 825 826 827 828 829 831 832 833 834 835 836 837 838 838 839 839 840 840 841 841 841 841 840 840 840 840 839 839 839 839 839 839 840 841 841 842 842 843 843 843 843 844 844 844 844 844 844 844 844 843 843 844 844 844 844 845 845 846 846 845 846 845 845 844 844 844 844 844 843 843 843
806 809 811 813 815 816 818 819 820 821 822 823 823 824 826 827 828 829 830 831 833 834 835 836 837 837 838 839 839 840 840 841 841 841 841 841 841 841 841 840 840 840 839 839 839 840 841 841 842 843 843 843 843 844 844 844 844 845 845 845 845 845 844 844 844 844 845 845 845 845 845 846 845 846 846 846 845 845 844 844 844 844 844 844 844
807 809 811 813 815 817 818 820 821 822 823 823 824 825 827 828 829 829 831 832 833 834 835 837 837 838 839 839 840 840 841 841 842 842 842 842 841 841 841 841 840 840 840 840 841 841 842 843 843 844 844 844 844 844 844 845 845 845 845 845 845 845 845 845 845 845 845 845 845 846 846 846 845 846 846 846 846 845 845 845 845 844 844 844 844
809 810 812 814 816 817 819 820 821 823 823 824 825 826 827 828 830 830 832 833 834 835 836 837 838 838 839 840 840 840 841 841 842 842 842 842 842 842 841 841 841 841 841 841 842 842 843 843 844 844 844 844 845 845 845 845 845 846 846 846 846 846 846 846 846 846 846 846 846 846 846 846 846 846 846 846 846 845 845 845 845 845 845 845 845
810 812 813 815 816 818 819 821 822 823 824 825 826 827 828 829 830 831 832 834 835 836 837 838 838 839 840 840 841 841 842 842 842 842 842 842 842 842 842 842 842 842 842 842 843 843 843 844 844 844 844 845 845 845 845 845 845 845 846 846 846 847 847 846 847 846 846 846 846 846 846 846 846 846 846 846 846 846 846 846 845 845 845 845 845
811 812 814 815 816 818 819 821 822 823 824 826 827 828 829 830 831 832 833 834 835 836 838 838 839 840 840 841 841 842 842 843 843 843 843 842 842 842 842 843 843 843 843 843 843 843 844 844 844 844 844 845 845 845 846 846 846 846 846 846 846 847 847 847 847 847 847 846 847 847 846 846 846 846 846 846 846 846 846 846 845 845 845 845 845
811 813 814 816 817 818 820 821 822 823 825 826 828 829 830 830 831 832 833 835 836 837 838 839 840 840 841 841 842 842 843 843 843 843 843 843 842 842 843 843 843 843 843 843 843 844 844 844 844 844 844 845 845 846 846 847 847 846 846 846 846 847 847 847 848 847 847 847 846 847 846 846 846 846 846 846 846 846 846 846 846 845 845 845 845
812 813 814 816 817 819 820 821 822 823 825 826 828 829 830 831 832 833 834 835 836 837 838 839 840 840 841 841 842 843 843 843 843 843 843 843 843 843 843 843 843 843 843 843 844 844 844 844 844 844 845 845 845 846 846 847 847 847 847 846 847 847 847 847 847 847 847 847 846 846 846 845 846 846 847 847 846 846 846 846 846 846 845 845 845
811 813 814 815 817 819 820 821 822 824 825 826 828 829 831 831 832 833 834 836 837 838 839 840 840 841 841 842 842 843 843 843 843 843 843 843 843 843 843 844 844 843 843 843 844 844 844 845 845 845 845 845 845 845 846 846 846 847 847 847 847 847 847 847 847 847 847 847 847 846 845 845 846 846 847 847 847 846 846 845 846 846 845 845 844
811 812 814 816 817 819 821 822 822 824 825 827 828 829 831 831 833 834 835 836 837 838 839 840 841 841 842 842 842 842 843 843 843 843 843 844 843 843 844 844 844 844 843 843 844 844 844 845 845 845 845 845 845 845 845 845 846 846 846 846 847 847 847 847 847 847 847 847 847 846 845 845 846 847 847 847 847 846 846 846 845 846 845 845 845
811 812 814 816 818 820 821 822 823 824 826 827 828 829 830 831 832 833 835 836 837 838 839 840 841 841 841 842 842 842 842 843 843 843 844 844 844 844 844 844 844 843 843 843 843 843 844 844 844 844 844 844 844 845 845 845 845 845 845 845 846 846 846 847 847 847 847 846 846 845 845 845 845 846 847 847 847 846 846 846 845 845 845 845 845
811 813 815 817 818 820 821 822 824 825 826 827 828 830 830 831 832 833 835 836 837 838 839 840 840 841 841 842 842 842 842 843 843 844 844 844 844 844 844 844 844 843 843 843 843 843 843 844 844 844 844 844 844 844 845 845 845 845 845 845 845 845 845 846 846 846 846 846 846 845 845 844 844 845 846 846 846 846 846 846 845 845 845 844 844
812 813 815 817 819 820 821 823 824 825 826 828 829 830 830 831 832 833 834 836 837 837 838 839 840 840 841 841 841 842 843 843 844 844 844 844 844 844 844 844 844 843 843 842 843 843 843 843 843 844 843 843 843 844 844 845 845 846 845 845 845 844 844 844 845 845 845 845 845 844 844 844 844 844 844 845 846 846 846 846 845 844 844 844 844
812 814 815 818 819 820 821 823 824 825 827 828 829 830 830 831 832 833 834 835 836 837 838 839 840 840 841 841 841 842 843 844 844 844 843 843 843 843 844 844 843 843 842 842 842 842 842 842 843 843 843 843 843 843 843 844 845 845 845 844 844 844 844 843 843 844 844 844 844 844 844 843 843 843 843 844 845 845 846 846 845 844 844 843 843
813 814 816 818 819 820 821 823 824 825 827 827 828 829 830 831 832 833 834 835 836 837 838 839 840 840 841 841 842 843 843 844 844 843 843 843 843 843 843 843 842 842 841 841 841 842 842 841 842 842 842 842 842 842 842 842 843 843 844 843 843 843 843 843 842 842 843 843 843 843 843 843 843 842 842 843 844 845 845 846 845 844 844 843 843
813 814 816 818 819 820 822 823 824 825 826 827 828 829 830 830 832 833 834 835 836 837 838 839 840 841 841 842 842 843 843 843 843 843 842 842 842 842 842 842 841 841 840 840 840 840 840 840 840 841 841 841 841 841 841 841 841 841 842 842 841 841 842 842 841 841 841 841 841 842 842 842 842 841 841 842 843 843 844 844 844 844 844 843 842
813 814 816 817 819 821 822 823 824 824 825 826 827 828 829 830 832 832 833 835 836 837 838 839 840 840 841 842 842 842 842 842 842 842 841 841 841 841 841 841 840 840 839 839 839 839 839 839 839 839 839 839 839 839 839 839 839 839 840 840 840 840 840 840 840 840 839 839 839 840 840 841 841 841 840 840 841 842 843 843 843 843 843 843 842
812 814 815 817 819 820 821 823 823 824 825 826 827 828 829 830 832 832 834 835 836 837 838 839 839 840 841 841 841 841 841 841 841 841 840 840 840 840 840 839 839 839 838 838 838 838 838 838 838 838 838 838 837 837 837 837 837 838 838 838 838 838 838 837 837 838 838 838 837 838 838 839 839 840 840 839 839 840 841 841 842 842 842 842 842
812 813 815 816 818 820 821 822 823 824 825 826 827 828 829 830 831 832 834 835 836 837 838 839 839 840 841 841 841 841 840 840 840 840 839 839 839 839 838 838 838 837 837 837 837 837 837 837 837 836 836 836 835 835 835 834 835 835 836 836 836 835 835 835 835 835 835 835 836 836 836 837 837 838 838 838 838 838 839 840 840 841 841 842 842
811 813 814 816 818 820 821 822 823 825 826 826 827 828 829 830 831 833 834 835 836 837 838 839 839 840 840 840 840 840 840 840 840 839 839 839 838 838 837 837 837 836 836 836 835 835 835 835 835 835 835 834 834 833 833 832 832 833 833 833 833 833 833 832 832 832 833 833 833 834 834 834 835 836 837 837 837 837 837 838 839 839 840 841 841
811 812 814 816 817 819 821 822 823 825 826 827 827 828 829 830 832 833 834 835 836 837 838 838 839 839 839 839 839 839 839 839 839 839 839 838 838 837 837 836 836 835 835 834 834 834 834 834 833 833 833 833 833 832 831 830 830 831 831 831 830 830 830 830 830 830 830 830 831 831 831 832 833 834 835 835 835 835 835 836 837 838 839 839 840
810 811 813 815 817 819 820 822 823 825 826 827 828 828 829 830 832 833 834 835 836 836 837 838 838 838 839 838 839 839 839 839 839 839 839 838 838 837 836 836 835 835 834 834 833 832 832 832 832 832 831 831 831 830 830 829 829 829 828 828 828 828 828 828 827 828 828 828 828 828 829 830 831 831 832 833 833 833 833 834 835 836 837 838 838
809 811 813 815 816 818 820 821 823 825 826 827 828 828 829 830 832 833 834 835 835 836 837 837 838 838 838 838 839 839 839 839 839 839 838 838 837 837 836 835 835 834 834 833 832 831 831 830 831 830 830 830 829 829 828 828 827 827 826 826 826 826 826 825 825 825 825 826 826 826 827 828 829 829 830 831 832 831 831 832 833 834 835 836 837
809 811 812 814 816 818 820 821 823 824 826 827 827 828 829 830 832 833 834 835 835 836 837 837 838 838 838 838 838 838 839 839 838 838 838 837 837 836 835 834 834 833 833 832 831 831 830 829 829 829 829 828 828 827 827 826 825 825 825 824 824 824 824 823 823 823 823 823 824 824 824 825 827 828 828 829 829 830 830 830 831 833 833 834 834
809 811 813 814 816 818 820 821 823 824 825 826 827 828 829 830 831 832 833 835 835 836 836 837 837 838 838 838 838 838 838 838 838 838 837 837 836 835 834 834 833 833 832 832 831 830 829 828 828 827 827 827 826 826 825 824 824 823 823 822 822 822 821 821 821 821 820 820 821 821 822 822 823 824 825 826 827 828 828 828 829 831 832 832 832
810 811 813 815 816 818 819 821 822 824 825 826 827 828 829 830 831 833 834 834 835 836 836 837 837 837 837 838 838 838 838 838 837 837 837 836 836 835 834 833 832 832 831 831 830 829 829 828 827 826 826 825 824 824 823 823 822 821 821 820 820 819 819 819 819 819 818 818 818 819 819 819 820 821 822 823 824 825 826 827 828 829 830 830 830
810 812 813 815 816 818 819 821 822 823 825 826 827 828 829 831 832 833 833 834 835 836 836 836 837 837 838 838 838 838 837 837 837 837 836 836 835 834 833 832 831 831 830 830 829 828 828 827 826 825 824 824 823 822 822 822 821 820 819 818 817 817 816 816 816 816 816 816 816 816 816 816 817 817 818 819 821 822 823 825 826 827 828 828 828
810 812 814 815 816 818 819 820 821 823 824 825 827 828 829 830 832 833 833 834 835 836 836 836 837 837 838 838 838 838 837 837 836 836 836 835 835 834 833 832 831 831 830 829 828 828 827 826 825 824 823 822 821 821 821 820 819 818 817 816 815 814 813 813 813 813 813 813 813 813 813 814 814 814 815 816 818 819 821 822 824 825 826 827 827
810 812 814 815 817 818 819 820 821 823 824 825 827 828 829 830 831 833 834 835 835 836 836 836 837 837 837 838 837 837 837 836 836 835 835 835 834 833 832 831 830 830 829 828 828 827 826 825 824 823 822 821 820 819 819 819 817 816 815 813 812 811 811 811 811 810 810 811 810 810 811 811 811 812 813 814 815 817 817 819 821 822 823 825 825
811 813 814 816 817 819 820 821 821 823 824 825 827 827 829 830 832 833 834 835 835 836 836 836 837 837 837 837 837 837 836 836 835 835 834 834 833 833 831 830 829 829 828 827 827 826 824 823 823 822 820 819 818 816 817 816 815 814 814 812 810 809 808 807 807 808 808 808 808 808 808 808 809 809 810 811 812 814 815 816 818 820 821 822 823
812 814 815 817 818 819 820 821 822 823 824 825 826 827 829 831 832 834 834 835 835 836 836 837 837 837 837 837 837 836 836 835 835 834 833 833 832 831 830 829 828 827 827 826 825 824 823 822 821 820 819 818 816 814 814 814 813 813 812 810 809 809 808 804 803 804 805 805 805 805 806 806 807 807 808 808 809 810 812 813 815 817 818 819 821
813 814 816 817 818 819 820 821 822 823 824 825 826 828 829 831 832 834 834 835 835 836 837 837 837 837 837 837 836 836 835 835 834 834 833 832 831 830 829 828 827 826 826 825 824 823 822 821 820 818 817 816 814 813 811 811 810 810 810 808 808 809 806 802 802 802 801 803 803 803 804 804 805 805 805 806 806 807 808 810 812 813 814 816 818
813 814 816 817 818 820 820 822 823 824 825 826 827 829 830 831 832 833 834 834 835 836 837 837 837 837 837 837 836 836 835 835 834 833 832 831 830 828 827 827 826 825 824 824 823 821 820 819 818 817 815 814 813 811 809 808 808 807 807 806 807 807 803 803 804 801 798 799 800 800 801 801 802 802 803 803 803 804 805 807 808 809 810 812 814
814 814 816 818 818 820 821 822 824 824 825 827 828 829 830 831 832 832 833 833 834 835 836 837 837 837 837 836 836 835 835 834 833 832 831 829 829 827 826 825 824 824 823 822 821 820 819 818 817 815 814 812 811 809 807 806 806 805 805 804 804 805 803 802 802 800 797 796 796 797 798 798 799 799 799 800 800 800 801 803 804 806 807 810 812
814 815 816 818 819 820 822 823 825 825 826 828 828 829 830 831 831 832 832 833 833 835 835 836 836 836 836 836 835 835 833 833 831 830 829 829 828 827 826 824 824 823 822 821 820 819 818 816 815 813 812 810 810 808 806 805 804 802 803 803 802 803 802 800 799 799 798 795 793 793 794 795 796 796 796 796 797 797 798 799 800 802 804 806 809
814 816 817 819 820 821 823 824 826 826 827 828 829 829 830 830 831 831 832 832 832 833 834 835 836 836 835 835 834 833 832 831 831 830 829 828 827 826 825 824 823 822 821 820 819 818 816 815 813 812 810 809 808 807 805 803 802 801 801 800 800 800 799 796 797 798 797 795 792 790 791 792 793 792 792 793 793 794 795 796 797 799 800 803 806
815 816 817 819 820 822 824 825 826 827 828 829 829 830 830 830 831 831 831 831 832 833 834 834 835 834 834 833 832 831 831 831 830 830 829 828 827 826 824 823 822 822 821 819 818 816 815 813 812 810 809 807 806 805 804 801 800 799 799 798 797 797 795 794 795 796 796 794 791 788 789 790 789 788 788 789 789 790 791 793 794 795 797 799 801
816 816 817 819 821 823 825 826 827 828 829 830 830 830 831 831 831 831 831 831 832 832 833 833 833 833 832 831 831 831 831 830 830 829 828 828 826 825 824 823 822 821 820 818 816 815 814 812 811 809 807 806 805 803 802 800 798 797 797 796 796 795 794 793 793 794 794 792 791 788 787 787 786 784 784 785 785 787 788 789 790 792 793 795 796